Location: Barnston
(51.8500°N, 0.4000°E)
Time: 04:56:15
(UTC+00:00)

Cosmos 2112 Rocket - Pass Details

Date: 26 September 2023
Orbit: 755 x 786 km, 74.0° (Epoch: 29 November)

Event Time Altitude Azimuth Distance (km) Brightness Sun altitude
Rises 03:43:09 0° 331° (NNW) 3,285 7.2 -19.9°
Reaches altitude 10° 03:45:38 10° 324° (NW) 2,355 6.4 -19.5°
Maximum altitude 03:50:40 43° 255° (WSW) 1,098 4.3 -18.8°
Drops below altitude 10° 03:55:40 10° 185° (S) 2,340 6.2 -18.1°
Sets 03:58:09 0° 179° (S) 3,263 7.1 -17.8°
